New Deal, TX

1:19 AM CDT on August 25, 2016 (GMT -0500)
Lubbock International

Weather History for KLBB - April, 2013

Change the Weather History Date:

Friday, April 5, 2013

  Actual Average Record
Temperature  
Mean Temperature 60 °F 57 °F  
Max Temperature 82 °F 72 °F 92 °F (1946)
Min Temperature 37 °F 42 °F 21 °F (1917)
Degree Days  
Heating Degree Days 5 9  
Month to date heating degree days 69 45  
Since 1 July heating degree days 2955 3199  
Cooling Degree Days 0 1  
Month to date cooling degree days 2 5  
Year to date cooling degree days 4 12  
Growing Degree Days 10 (Base 50)    
Moisture  
Dew Point 31 °F    
Average Humidity 49    
Maximum Humidity 85    
Minimum Humidity 12    
Precipitation  
Precipitation 0.00 in 0.04 in 1.35 in (1940)
Month to date precipitation T 0.20  
Year to date precipitation 2.23 2.70  
Snow  
Snow 0.00 in 0.00 in 0.20 in (1983)
Month to date snowfall 0.0 0.1  
Since 1 July snowfall 3.7 8.1  
Snow Depth 0.00 in    
Sea Level Pressure  
Sea Level Pressure 29.98 in    
Wind  
Wind Speed 17 mph (South)    
Max Wind Speed 31 mph    
Max Gust Speed 38 mph    
Visibility 10 miles    
Events      
T = Trace of Precipitation, MM = Missing Value Source: NWS Daily Summary

Daily Weather History Graph

Daily Weather History Graph

Search for Another Location

Airport or City:

Trip Planner

Search our weather history database for the weather conditions in past years. The results will help you decide how hot, cold, wet, or windy it might be!

Date:

Astronomy

Apr. 05, 2013 Rise Set
Actual Time 7:29 AM CDT 8:11 PM CDT
Civil Twilight 7:03 AM CDT 8:36 PM CDT
Nautical Twilight 6:34 AM CDT 9:06 PM CDT
Astronomical Twilight 6:03 AM CDT 9:36 PM CDT
Moon 4:24 AM CDT (4/5) 3:49 PM CDT (4/5)
Length of Visible Light 13h 32m
Length of Day
12h 41m
Waning Crescent, 23% of the Moon is Illuminated
Apr 5
Waning Crescent
Apr 10
New
Apr 18
First Quarter
Apr 25
Full
May 2
Last Quarter

Hourly Weather History & Observations

Time (CDT) Temp. Windchill Dew Point Humidity Pressure Visibility Wind Dir Wind Speed Gust Speed Precip Events Conditions
12:53 AM 45.0 °F 40.6 °F 37.0 °F 74% 30.12 in 10.0 mi SSE 8.1 mph - N/A   Partly Cloudy
1:53 AM 44.1 °F 39.0 °F 37.0 °F 76% 30.11 in 10.0 mi South 9.2 mph - N/A   Scattered Clouds
2:53 AM 42.1 °F 37.1 °F 36.0 °F 79% 30.09 in 10.0 mi SE 8.1 mph - N/A   Mostly Cloudy
3:53 AM 39.9 °F 35.8 °F 35.1 °F 83% 30.09 in 10.0 mi SSE 5.8 mph - N/A   Partly Cloudy
4:53 AM 39.9 °F 36.7 °F 35.1 °F 83% 30.08 in 10.0 mi SE 4.6 mph - N/A   Partly Cloudy
5:53 AM 39.0 °F 34.0 °F 35.1 °F 86% 30.09 in 10.0 mi South 6.9 mph - N/A   Partly Cloudy
6:53 AM 39.0 °F 34.0 °F 36.0 °F 89% 30.09 in 9.0 mi SSE 6.9 mph - N/A   Mostly Cloudy
7:53 AM 39.9 °F 35.8 °F 36.0 °F 86% 30.10 in 10.0 mi SSE 5.8 mph - N/A   Mostly Cloudy
8:53 AM 46.0 °F 42.5 °F 39.0 °F 76% 30.11 in 10.0 mi South 6.9 mph - N/A   Overcast
9:53 AM 51.1 °F - 37.9 °F 61% 30.11 in 10.0 mi South 12.7 mph - N/A   Overcast
10:53 AM 60.1 °F - 37.9 °F 44% 30.09 in 10.0 mi South 15.0 mph - N/A   Overcast
11:53 AM 68.0 °F - 36.0 °F 31% 30.05 in 10.0 mi South 17.3 mph - N/A   Clear
12:53 PM 72.0 °F - 30.9 °F 22% 30.01 in 10.0 mi South 23.0 mph 29.9 mph N/A   Overcast
1:53 PM 75.0 °F - 30.0 °F 19% 29.97 in 10.0 mi South 18.4 mph 32.2 mph N/A   Overcast
2:53 PM 78.1 °F - 26.1 °F 15% 29.92 in 10.0 mi South 26.5 mph 34.5 mph N/A   Overcast
3:53 PM 80.1 °F - 25.0 °F 13% 29.88 in 10.0 mi South 25.3 mph 32.2 mph N/A   Mostly Cloudy
4:53 PM 78.1 °F - 26.1 °F 15% 29.86 in 10.0 mi South 26.5 mph 34.5 mph N/A   Overcast
5:53 PM 81.0 °F - 25.0 °F 13% 29.82 in 10.0 mi South 26.5 mph 32.2 mph N/A   Overcast
6:53 PM 79.0 °F - 23.0 °F 13% 29.81 in 10.0 mi South 25.3 mph 34.5 mph N/A   Overcast
7:53 PM 75.0 °F - 23.0 °F 14% 29.82 in 10.0 mi South 19.6 mph 26.5 mph N/A   Mostly Cloudy
8:53 PM 72.0 °F - 23.0 °F 16% 29.82 in 10.0 mi South 19.6 mph 26.5 mph N/A   Mostly Cloudy
9:53 PM 69.1 °F - 23.0 °F 18% 29.81 in 10.0 mi South 20.7 mph - N/A   Scattered Clouds
10:53 PM 66.9 °F - 24.1 °F 20% 29.79 in 10.0 mi South 21.9 mph 27.6 mph N/A   Scattered Clouds
11:53 PM 64.9 °F - 28.0 °F 25% 29.77 in 10.0 mi South 24.2 mph - N/A   Scattered Clouds